KC2DUX-10 Weather Reports


time (UTC)temp
C
wind
direction
speed
KPH
gust
KPH
rain 1hr
cm
rain 24hr
cm
rain mn
cm
humidity
%
barometer
mb
20211027202033 17 355 20.9 27.4 0.00 0.03 0.00 70 1005.9
20211027201553 17 355 20.9 29.0 0.00 0.03 0.00 71 1005.8
20211027201037 17 5 22.5 29.0 0.00 0.03 0.00 70 1005.7
20211027200526 17 348 22.5 30.6 0.00 0.03 0.00 70 1005.7
20211027200057 17 355 24.1 33.8 0.00 0.03 0.00 69 1005.6
20211027195546 18 17 25.7 33.8 0.00 0.03 0.00 70 1005.6
20211027195033 18 351 24.1 32.2 0.00 0.03 0.00 69 1005.4
20211027194635 18 11 27.4 35.4 0.00 0.03 0.00 69 1005.4
20211027194022 18 355 24.1 32.2 0.00 0.03 0.00 69 1005.4
20211027193526 18 18 25.7 32.2 0.00 0.03 0.00 70 1005.3
20211027193050 18 9 20.9 32.2 0.00 0.03 0.00 72 1005.2
20211027192519 18 5 25.7 33.8 0.00 0.03 0.00 71 1005.1
20211027192032 17 15 25.7 33.8 0.00 0.03 0.00 72 1005.0
20211027191525 17 360 20.9 32.2 0.00 0.03 0.00 71 1005.0
20211027191020 17 13 24.1 32.2 0.00 0.03 0.00 72 1005.0
20211027190524 17 9 20.9 33.8 0.00 0.03 0.00 71 1004.9
20211027190051 17 355 24.1 33.8 0.00 0.03 0.00 71 1004.7
20211027185515 17 339 22.5 29.0 0.00 0.03 0.00 71 1004.7
20211027185035 17 11 22.5 30.6 0.00 0.03 0.00 72 1004.7
20211027184545 17 360 22.5 30.6 0.00 0.03 0.00 73 1004.8
20211027184013 17 5 20.9 30.6 0.00 0.03 0.00 74 1004.8
20211027183513 17 10 24.1 37.0 0.00 0.03 0.00 73 1004.7
20211027183023 17 355 29.0 37.0 0.00 0.03 0.00 73 1004.7
20211027182511 17 342 25.7 32.2 0.00 0.03 0.00 73 1004.6
20211027182022 17 340 25.7 35.4 0.00 0.03 0.00 73 1004.6
20211027181521 17 351 25.7 35.4 0.00 0.03 0.00 73 1004.6
20211027181015 17 350 27.4 35.4 0.00 0.03 0.00 72 1004.6
20211027180515 17 336 27.4 33.8 0.00 0.03 0.00 73 1004.5
20211027180033 17 346 22.5 33.8 0.00 0.03 0.00 73 1004.5
20211027175508 17 338 24.1 33.8 0.00 0.03 0.00 73 1004.5
20211027175006 17 333 25.7 29.0 0.00 0.03 0.00 71 1004.4
20211027174508 17 332 19.3 30.6 0.00 0.03 0.00 71 1004.4
20211027174007 17 344 19.3 29.0 0.00 0.03 0.00 72 1004.4
20211027173507 17 355 20.9 33.8 0.00 0.03 0.00 71 1004.4
20211027173005 17 348 22.5 33.8 0.00 0.03 0.00 71 1004.4
20211027172509 17 355 24.1 38.6 0.00 0.03 0.00 70 1004.3
20211027172004 17 5 27.4 38.6 0.00 0.03 0.00 71 1004.3
20211027171504 17 9 29.0 40.2 0.00 0.03 0.00 70 1004.2
20211027171008 17 336 29.0 43.5 0.00 0.03 0.00 71 1004.2
20211027170502 17 333 30.6 43.5 0.00 0.03 0.00 70 1004.3
20211027170001 17 346 25.7 37.0 0.00 0.03 0.00 73 1004.3
20211027165609 17 355 29.0 48.3 0.00 0.03 0.00 72 1004.2
20211027165505 17 347 25.7 48.3 0.00 0.03 0.00 72 1004.2
20211027165104 17 348 35.4 48.3 0.00 0.03 0.00 72 1004.1
20211027164655 17 360 24.1 37.0 0.00 0.03 0.00 72 1004.1
20211027164105 17 344 29.0 41.8 0.00 0.03 0.00 72 1004.0
20211027163603 17 355 32.2 41.8 0.00 0.03 0.00 71 1004.0
20211027163134 17 355 30.6 40.2 0.00 0.03 0.00 72 1004.0
20211027162600 17 344 25.7 38.6 0.00 0.03 0.00 73 1004.0
20211027162102 17 345 32.2 40.2 0.00 0.03 0.00 73 1004.0
20211027161635 17 344 29.0 41.8 0.00 0.03 0.00 73 1004.0
20211027161118 17 346 32.2 46.7 0.00 0.03 0.00 72 1004.0
20211027160556 17 336 35.4 46.7 0.00 0.03 0.00 72 1003.9
20211027160202 17 343 29.0 41.8 0.00 0.03 0.00 71 1003.9
20211027155553 17 345 27.4 40.2 0.00 0.03 0.00 72 1003.9
20211027154637 17 328 25.7 43.5 0.00 0.03 0.00 72 1003.8
20211027154051 17 315 27.4 43.5 0.00 0.03 0.00 71 1003.6
20211027153604 17 343 27.4 43.5 0.00 0.03 0.00 74 1003.7
20211027153117 17 337 29.0 41.8 0.00 0.03 0.00 73 1003.5
20211027152614 17 338 25.7 38.6 0.00 0.03 0.00 74 1003.5
20211027152051 17 344 24.1 40.2 0.00 0.03 0.00 75 1003.5
20211027151619 17 337 30.6 40.2 0.00 0.03 0.00 75 1003.4
20211027151109 16 327 25.7 38.6 0.00 0.03 0.00 75 1003.4
20211027150543 16 355 30.6 38.6 0.00 0.03 0.00 75 1003.3
20211027150044 16 332 27.4 40.2 0.00 0.03 0.00 76 1003.3
20211027145557 16 330 32.2 40.2 0.00 0.03 0.00 76 1003.2
20211027145045 16 335 24.1 41.8 0.00 0.03 0.00 76 1003.2
20211027144602 16 338 32.2 43.5 0.00 0.03 0.00 76 1003.0
20211027144040 16 324 29.0 43.5 0.00 0.03 0.00 77 1003.0
20211027143551 16 332 33.8 43.5 0.00 0.03 0.00 77 1002.9
20211027143153 16 325 29.0 37.0 0.00 0.03 0.00 77 1002.9
20211027142542 16 329 27.4 40.2 0.00 0.03 0.00 78 1002.9
20211027142046 16 323 25.7 41.8 0.00 0.03 0.00 78 1002.9
20211027141545 16 328 29.0 43.5 0.00 0.03 0.00 79 1002.7
20211027141037 16 306 33.8 48.3 0.00 0.03 0.00 78 1002.6
20211027140536 16 316 32.2 48.3 0.00 0.03 0.00 78 1002.7
20211027140118 15 336 32.2 41.8 0.00 0.03 0.00 78 1002.6
20211027135533 15 331 27.4 46.7 0.00 0.03 0.00 79 1002.6
20211027135034 15 313 35.4 46.7 0.00 0.03 0.00 79 1002.5
20211027134549 15 331 27.4 48.3 0.00 0.03 0.00 79 1002.6
20211027134033 15 323 29.0 48.3 0.00 0.03 0.00 79 1002.5
20211027133534 15 309 32.2 45.1 0.00 0.03 0.00 79 1002.5
20211027133047 15 329 29.0 46.7 0.00 0.03 0.00 79 1002.4
20211027132531 15 311 29.0 45.1 0.00 0.03 0.00 80 1002.3
20211027132031 15 314 29.0 43.5 0.00 0.03 0.00 80 1002.4
20211027131553 15 321 29.0 46.7 0.00 0.03 0.00 80 1002.2
20211027131036 15 325 35.4 46.7 0.00 0.03 0.00 80 1002.2
20211027130545 15 317 30.6 49.9 0.00 0.03 0.00 80 1002.2
20211027130051 15 313 37.0 49.9 0.00 0.03 0.00 80 1002.1
20211027125529 15 321 35.4 43.5 0.00 0.03 0.00 80 1002.1
20211027125036 15 314 32.2 41.8 0.00 0.03 0.00 80 1002.1
20211027124611 15 317 30.6 45.1 0.00 0.03 0.00 80 1002.3
20211027124104 15 340 29.0 49.9 0.00 0.03 0.00 80 1002.1
20211027123525 15 341 33.8 49.9 0.00 0.03 0.00 80 1001.9
20211027123032 15 336 32.2 45.1 0.00 0.03 0.00 81 1001.9
20211027122525 15 314 32.2 48.3 0.00 0.03 0.00 81 1001.8
20211027122031 15 333 33.8 48.3 0.00 0.03 0.00 81 1001.7
20211027121532 15 313 35.4 49.9 0.00 0.03 0.00 81 1001.6
20211027121021 15 319 33.8 49.9 0.00 0.03 0.00 82 1001.6
20211027120522 15 315 30.6 46.7 0.00 0.03 0.00 82 1001.6
20211027120025 15 306 30.6 43.5 0.00 0.03 0.00 84 1001.5
20211027115531 14 311 29.0 43.5 0.00 0.03 0.00 84 1001.5
20211027115019 14 316 30.6 43.5 0.00 0.03 0.00 83 1001.5
20211027114540 14 315 32.2 41.8 0.00 0.03 0.00 84 1001.4
20211027114041 14 316 29.0 41.8 0.00 0.03 0.00 84 1001.4
20211027113525 14 294 33.8 41.8 0.00 0.03 0.00 84 1001.3
20211027113039 14 309 29.0 40.2 0.00 0.03 0.00 84 1001.3
20211027112515 14 329 25.7 40.2 0.00 0.03 0.00 85 1001.2
20211027112015 14 309 30.6 45.1 0.00 0.03 0.00 85 1001.2
20211027111517 14 305 27.4 40.2 0.00 0.03 0.00 85 1000.9
20211027111018 14 302 30.6 45.1 0.00 0.03 0.00 85 1000.9
20211027110514 14 312 29.0 45.1 0.00 0.03 0.00 85 1000.9
20211027110022 14 291 30.6 40.2 0.00 0.03 0.00 84 1001.0
20211027105530 14 316 29.0 41.8 0.00 0.03 0.00 84 1000.9
20211027105018 13 305 30.6 41.8 0.00 0.03 0.00 85 1000.9
20211027104525 13 306 25.7 41.8 0.00 0.03 0.00 85 1000.9
20211027104007 13 308 30.6 41.8 0.00 0.03 0.00 86 1000.8
20211027103511 13 304 30.6 41.8 0.00 0.03 0.00 86 1000.8
20211027103019 13 295 27.4 35.4 0.00 0.03 0.00 86 1000.7
20211027102521 13 319 25.7 38.6 0.00 0.03 0.00 86 1000.8
20211027102004 13 311 30.6 38.6 0.00 0.03 0.00 87 1000.6
20211027101504 13 312 29.0 38.6 0.00 0.03 0.00 87 1000.6
20211027101003 13 316 29.0 37.0 0.00 0.03 0.00 87 1000.7
20211027100504 13 331 25.7 40.2 0.00 0.03 0.00 87 1000.6
20211027100003 13 308 27.4 37.0 0.00 0.03 0.00 87 1000.6
20211027095502 12 309 27.4 33.8 0.00 0.08 0.00 87 1000.6
20211027095002 12 313 24.1 33.8 0.00 0.08 0.00 88 1000.5
20211027094503 12 336 20.9 30.6 0.00 0.08 0.00 88 1000.6
20211027093600 12 315 25.7 33.8 0.00 0.08 0.00 88 1000.6
20211027093125 12 325 24.1 33.8 0.00 0.08 0.00 88 1000.5
20211027092559 12 305 25.7 38.6 0.00 0.08 0.00 88 1000.6
20211027092103 12 310 24.1 38.6 0.00 0.08 0.00 89 1000.7
20211027091720 12 312 25.7 37.0 0.00 0.08 0.00 89 1000.5
20211027091057 12 313 24.1 37.0 0.00 0.08 0.00 89 1000.5
20211027090637 12 317 22.5 38.6 0.00 0.08 0.00 89 1000.4
20211027090140 12 306 29.0 38.6 0.00 0.08 0.00 89 1000.4
20211027085606 12 304 29.0 40.2 0.00 0.20 0.00 89 1000.4
20211027085058 12 293 27.4 40.2 0.00 0.20 0.00 89 1000.5
20211027084622 12 304 27.4 38.6 0.00 0.20 0.00 89 1000.4
20211027084128 12 333 29.0 35.4 0.00 0.20 0.00 88 1000.5
20211027083555 12 333 27.4 41.8 0.00 0.20 0.00 87 1000.5
20211027083115 12 327 29.0 41.8 0.00 0.20 0.00 86 1000.3
20211027082617 12 321 30.6 41.8 0.00 0.20 0.00 85 1000.3
20211027082105 12 333 32.2 41.8 0.00 0.20 0.00 85 1000.2
20211027081703 12 333 24.1 37.0 0.00 0.20 0.00 85 1000.1
20211027081051 12 326 22.5 37.0 0.00 0.20 0.00 85 1000.0
20211027080550 12 317 25.7 38.6 0.00 0.20 0.00 85 999.9
20211027080218 12 323 30.6 38.6 0.00 0.20 0.00 85 999.9
20211027075549 12 310 22.5 37.0 0.00 0.46 0.00 85 999.9
20211027075109 12 331 25.7 40.2 0.00 0.46 0.00 85 999.8
20211027074637 12 311 25.7 40.2 0.00 0.46 0.00 85 999.8
20211027074047 12 317 25.7 40.2 0.00 0.46 0.00 86 999.8
20211027073554 12 315 29.0 40.2 0.00 0.46 0.00 85 999.8
20211027073050 12 319 27.4 38.6 0.00 0.46 0.00 85 999.7
20211027072546 12 308 27.4 38.6 0.00 0.46 0.00 85 999.6
20211027072105 12 307 27.4 43.5 0.00 0.46 0.00 85 999.6
20211027071706 11 331 32.2 43.5 0.00 0.46 0.00 85 999.6
20211027071045 11 319 27.4 41.8 0.00 0.46 0.00 86 999.7
20211027070544 11 319 29.0 41.8 0.00 0.46 0.00 85 999.6
20211027070110 12 328 32.2 43.5 0.00 0.46 0.00 84 999.6
20211027065615 11 297 30.6 46.7 0.00 1.09 0.00 84 999.6
20211027065106 11 319 35.4 46.7 0.00 1.09 0.00 83 999.5
20211027064603 11 299 33.8 46.7 0.00 1.09 0.00 84 999.4
20211027064043 11 315 35.4 49.9 0.00 1.09 0.00 83 999.3
20211027063540 11 314 35.4 49.9 0.00 1.09 0.00 83 999.2
20211027063105 11 314 33.8 48.3 0.00 1.09 0.00 83 999.2
20211027062538 12 319 35.4 46.7 0.00 1.09 0.00 83 999.2
20211027062044 12 310 38.6 46.7 0.00 1.09 0.00 83 999.0
20211027061613 12 292 30.6 41.8 0.00 1.09 0.00 83 999.1
20211027061041 12 316 32.2 45.1 0.00 1.09 0.00 83 999.0
20211027060537 11 297 29.0 45.1 0.00 1.09 0.00 82 999.0
20211027060104 11 321 33.8 48.3 0.00 1.09 0.00 82 999.1
20211027055538 11 301 37.0 48.3 0.00 1.45 0.00 83 998.9
20211027055105 11 307 32.2 46.7 0.00 1.45 0.00 83 999.0
20211027054559 11 301 33.8 48.3 0.00 1.45 0.00 84 998.9
20211027054039 11 290 30.6 51.5 0.00 1.45 0.00 85 999.0
20211027053533 11 285 35.4 51.5 0.00 1.45 0.00 83 999.0
20211027053123 11 302 37.0 51.5 0.00 1.45 0.00 82 999.1
20211027052531 12 315 35.4 54.7 0.00 1.45 0.00 80 999.0
20211027052048 12 306 38.6 54.7 0.00 1.45 0.00 79 999.0
20211027051540 12 310 37.0 51.5 0.00 1.45 0.00 78 998.8
20211027051030 12 309 33.8 51.5 0.00 1.45 0.00 78 998.8
20211027050551 12 310 37.0 61.2 0.00 1.45 0.00 77 998.8
20211027050039 12 306 37.0 61.2 0.00 1.45 0.00 77 998.8
20211027045526 12 311 43.5 57.9 0.00 1.52 0.00 77 998.7
20211027045029 12 306 45.1 57.9 0.00 1.52 0.00 77 998.6
20211027044611 12 305 37.0 57.9 0.00 1.52 0.00 77 998.6
20211027044025 12 296 40.2 57.9 0.00 1.52 0.00 76 998.6
20211027043523 12 287 32.2 56.3 0.00 1.52 0.00 77 998.6
20211027043028 11 319 43.5 57.9 0.00 1.52 0.00 76 998.5
20211027042525 11 300 43.5 59.5 0.00 1.52 0.00 76 998.6
20211027042021 11 299 40.2 59.5 0.00 1.52 0.00 76 998.6
20211027041618 11 322 40.2 56.3 0.00 1.52 0.00 76 998.7
20211027041018 11 297 37.0 54.7 0.00 1.52 0.00 76 998.7
20211027040521 11 303 41.8 54.7 0.00 1.52 0.00 75 998.6
20211027040017 11 289 38.6 57.9 0.00 1.52 0.00 75 998.7
20211027035524 11 280 40.2 57.9 0.00 1.52 1.52 75 998.7
20211027035038 11 306 37.0 64.4 0.00 1.52 1.52 76 998.6
20211027034542 11 309 43.5 64.4 0.00 1.52 1.52 75 998.6
20211027034013 11 294 40.2 64.4 0.00 1.52 1.52 74 998.6
20211027033512 11 296 41.8 57.9 0.00 1.52 1.52 75 998.7
20211027033040 11 286 38.6 59.5 0.00 1.52 1.52 74 998.8
20211027032511 11 293 45.1 59.5 0.00 1.52 1.52 74 998.7
20211027032011 11 306 43.5 57.9 0.00 1.52 1.52 74 998.8
20211027031510 11 322 46.7 66.0 0.00 1.52 1.52 74 998.9
20211027031014 11 288 43.5 66.0 0.00 1.52 1.52 74 998.9
20211027030509 11 306 40.2 66.0 0.00 1.52 1.52 74 998.9
20211027030009 11 316 37.0 66.0 0.00 1.52 1.52 74 999.0
20211027025508 12 298 46.7 66.0 0.00 1.70 1.52 73 999.0
20211027025023 12 284 46.7 66.0 0.00 1.70 1.52 73 999.0
20211027024515 12 288 38.6 54.7 0.00 1.70 1.52 74 999.1
20211027024006 12 311 40.2 64.4 0.00 1.70 1.52 74 999.1
20211027023505 12 299 40.2 64.4 0.00 1.70 1.52 73 999.1
20211027023005 12 310 38.6 54.7 0.00 1.70 1.52 73 999.1
20211027022504 12 285 38.6 61.2 0.00 1.70 1.52 73 999.1
20211027022004 12 292 40.2 61.2 0.00 1.70 1.52 73 999.2
20211027021504 12 313 37.0 54.7 0.00 1.70 1.52 74 999.2
20211027021006 12 290 40.2 59.5 0.00 1.70 1.52 74 999.3
20211027020505 12 296 40.2 59.5 0.00 1.70 1.52 73 999.3
20211027020007 12 302 40.2 54.7 0.00 1.70 1.52 75 999.2
20211027015502 12 309 41.8 57.9 0.00 1.70 1.52 74 999.2
20211027015004 12 295 33.8 51.5 0.00 1.70 1.52 75 999.3
20211027014100 12 297 40.2 53.1 0.00 1.70 1.52 75 999.3
20211027013600 12 290 38.6 53.1 0.00 1.70 1.52 75 999.3
20211027013217 12 311 38.6 56.3 0.00 1.70 1.52 75 999.4
20211027012559 12 286 32.2 53.1 0.00 1.70 1.52 76 999.4
20211027012059 12 301 32.2 45.1 0.00 1.70 1.52 78 999.4
20211027011740 12 281 30.6 53.1 0.00 1.70 1.52 77 999.4
20211027011103 12 309 35.4 53.1 0.00 1.70 1.52 77 999.4
20211027010604 12 321 35.4 51.5 0.00 1.70 1.52 78 999.4
20211027010155 12 296 35.4 51.5 0.00 1.70 1.52 78 999.4
20211027005556 12 295 32.2 53.1 0.00 1.70 1.52 79 999.4
20211027005056 12 291 35.4 56.3 0.00 1.70 1.52 78 999.5
20211027004711 12 292 38.6 56.3 0.00 1.70 1.52 78 999.4
20211027004057 12 281 37.0 57.9 0.00 1.70 1.52 76 999.4
20211027003602 12 294 43.5 57.9 0.00 1.70 1.52 76 999.3
20211027003130 12 302 37.0 54.7 0.00 1.70 1.52 76 999.3
20211027002551 12 289 33.8 53.1 0.00 1.70 1.52 76 999.3
20211027002057 12 292 37.0 59.5 0.00 1.70 1.52 76 999.3
20211027001629 12 298 43.5 59.5 0.00 1.70 1.52 75 999.2
20211027001051 12 314 38.6 64.4 0.00 1.70 1.52 77 999.3
20211027000550 12 275 48.3 64.4 0.00 1.70 1.52 75 999.2
20211027000127 12 296 40.2 59.5 0.00 1.70 1.52 76 999.2
20211026235548 12 294 32.2 64.4 0.00 2.01 1.52 76 999.2
20211026235058 12 294 43.5 64.4 0.03 2.01 1.52 76 999.2
20211026234630 12 306 37.0 59.5 0.03 2.01 1.52 76 999.1
20211026234050 12 286 41.8 62.8 0.03 2.01 1.52 75 999.0
20211026233544 12 290 45.1 62.8 0.03 2.01 1.52 75 999.0
20211026233110 13 306 35.4 57.9 0.03 2.01 1.52 74 999.1
20211026232548 13 293 41.8 59.5 0.03 2.01 1.52 74 999.0
20211026232041 13 277 40.2 59.5 0.03 2.01 1.52 74 999.0
20211026231612 13 290 37.0 57.9 0.03 2.01 1.52 75 999.0
20211026231045 13 294 37.0 61.2 0.03 2.01 1.52 72 998.9
20211026230540 13 278 41.8 67.6 0.03 2.01 1.52 72 998.8
20211026230104 13 288 49.9 69.2 0.03 2.01 1.52 72 998.7
20211026225542 13 300 43.5 69.2 0.03 2.08 1.52 71 998.7
20211026225037 13 293 43.5 67.6 0.00 2.06 1.50 73 998.7
20211026224557 13 288 40.2 61.2 0.00 2.06 1.50 72 998.6
20211026224049 13 306 38.6 61.2 0.00 2.06 1.50 74 998.6
20211026223542 13 323 35.4 61.2 0.00 2.06 1.50 72 998.6
20211026223153 13 267 33.8 70.8 0.00 2.06 1.50 72 998.5
20211026222535 13 300 38.6 69.2 0.00 2.06 1.50 71 998.4
20211026222034 13 292 48.3 66.0 0.00 2.06 1.50 70 998.2
20211026221553 14 303 46.7 66.0 0.00 2.06 1.50 71 998.2
20211026221036 14 299 48.3 62.8 0.00 2.06 1.50 71 998.1
20211026220536 14 302 46.7 59.5 0.00 2.06 1.50 71 998.1
20211026220127 14 321 43.5 70.8 0.00 2.06 1.50 72 998.1
20211026215528 14 321 45.1 70.8 0.00 2.06 1.50 70 998.0
20211026215027 14 302 41.8 64.4 0.00 2.06 1.50 72 998.0
20211026214034 15 298 41.8 57.9 0.00 2.06 1.50 72 997.9
20211026213533 15 318 41.8 57.9 0.00 2.06 1.50 72 997.8
20211026213031 15 306 41.8 57.9 0.00 2.06 1.50 72 997.9
20211026212522 15 302 38.6 57.9 0.00 2.06 1.50 71 997.7
20211026212021 15 304 41.8 64.4 0.00 2.06 1.50 71 997.5
20211026211521 15 282 45.1 64.4 0.00 2.06 1.50 71 997.5
20211026211019 15 294 43.5 59.5 0.00 2.06 1.50 70 997.4
20211026210534 15 301 35.4 59.5 0.00 2.06 1.50 71 997.4
20211026210025 16 300 35.4 57.9 0.00 2.06 1.50 73 997.2
20211026205521 16 281 38.6 59.5 0.00 2.06 1.50 71 997.1
20211026205022 16 305 37.0 59.5 0.00 2.06 1.50 71 997.1
20211026204525 16 294 41.8 61.2 0.00 2.06 1.50 70 997.0
20211026204013 16 301 46.7 61.2 0.00 2.06 1.50 70 997.0
20211026203523 16 286 30.6 57.9 0.00 2.06 1.50 73 996.8
20211026203024 16 286 41.8 62.8 0.00 2.06 1.50 71 996.6
20211026202513 17 302 45.1 62.8 0.00 2.06 1.50 70 996.5